sat.trackr.live / text

‹ back to catalog

STARLINK-30945

NORAD 58874 · 2024-019X

PAYLOAD ACTIVE UNKNOWN

§ Identity

Operator
Country
US
Launch date
2024-01-29
Launch site
AFETR
Launch vehicle
Mass (kg)
RCS (m²)

Purposes: comms

External: N2YO · Heavens-Above · Gunter

§ Orbital elements

Epoch: 2026-05-25T03:32:15.352224Z

Period
94.27 min
Inclination
43.0028°
Eccentricity
0.0001582
Mean motion
15.27576582 rev/d
Perigee alt
482.0 km
Apogee alt
484.1 km
Semi-major
6,861.2 km
B*
4.0768e-5
RAAN
177.2912°
Arg perigee
275.8044°
Mean anomaly
84.2627°
Rev number
13,077

§ Raw data

STARLINK-309451 58874U 24019X   26145.14739991  .00000860  00000+0  40768-4 0  99912 58874  43.0028 177.2912 0001582 275.8044  84.2627 15.27576582130771

JSON: /api/v1/satellites/58874 · /tle

For live sub-satellite position, see the globe view (requires WebGL).

§ Visibility from observer

Set your observer location to see the next 7 days of passes ≥ 10°. The values pass through the URL so the page stays shareable.

No JS? Fill the form by hand. The geolocation button needs JavaScript.